Regional Weather Roundup
Issued by NWS Little Rock, AR

Home | Current Version | Previous Version | Graphics & Text | Print | Product List | Glossary On
Versions: 1 2 3 4 5 6 7 8 9 10 11 12 13 14 15 16 17 18 19 20 21 22 23 24 25 26 27 28 29 30 31 32 33 34 35 36 37 38 39 40 41 42 43 44 45 46 47 48 49 50
000
ASUS44 KLZK 161705
RWRLZK

WEATHER ROUNDUP FOR ARKANSAS
NATIONAL WEATHER SERVICE LITTLE ROCK AR
1100 AM CST SAT DEC 16 2017

NOTE: "FAIR" INDICATES FEW OR NO CLOUDS BELOW 12,000 FEET WITH NO
SIGNIFICANT WEATHER AND/OR OBSTRUCTIONS TO VISIBILITY.

ARZ001-003-010-029-161800-
NORTHWEST ARKANSAS

CITY           SKY/WX    TMP DP  RH WIND       PRES   REMARKS
FAYETTEVILLE   SUNNY     51  27  39 S13       30.10F
FORT SMITH     CLOUDY    43  33  68 NE7       30.15F
HARRISON       SUNNY     53  26  35 SW10G20   30.10S
BENTONVILLE    SUNNY     49  26  41 SW12      30.10S
ROGERS         SUNNY     50  26  39 SW15      30.09S
SILOAM SPGS    SUNNY     50  27  40 S16       30.09F
HIGHFILL       SUNNY     49  26  41 SW18G26   30.08S
SPRINGDALE     SUNNY     50  25  37 SW15G23   30.11R
$$

ARZ004-005-016-161800-
NORTH CENTRAL ARKANSAS

CITY           SKY/WX    TMP DP  RH WIND       PRES   REMARKS
BATESVILLE     CLOUDY    50  28  42 SW13      30.18F
FLIPPIN        SUNNY     51  26  37 S8        30.13F
MTN HOME       SUNNY     49  26  41 SW14G21   30.10F
$$

ARZ040-041-161800-
WEST CENTRAL ARKANSAS

CITY           SKY/WX    TMP DP  RH WIND       PRES   REMARKS
MENA           SUNNY     54  28  37 SW6G16    30.18R
MOUNT IDA      SUNNY     52  28  39 SW9       30.15F
$$

ARZ009-017-025-026-028-161800-
NORTHEAST ARKANSAS

CITY           SKY/WX    TMP DP  RH WIND       PRES   REMARKS
JONESBORO      CLOUDY    47  33  58 SW17      30.19F
NEWPORT        SUNNY     47  31  53 SW21G28   30.19F
WALNUT RIDGE   CLOUDY    45  32  60 S17       30.18F
BLYTHEVILLE    SUNNY     49  33  54 SW20G28   30.21F
$$

ARZ022-023-033-042-044-161800-
CENTRAL ARKANSAS

CITY           SKY/WX    TMP DP  RH WIND       PRES   REMARKS
LITTLE ROCK    PTSUNNY   50  31  48 VRB6      30.20F
N LITTLE ROCK    N/A     48  32  53 SW8       30.22F
JACKSONVILLE   CLOUDY    49  30  47 S9        30.19F
SEARCY         SUNNY     50  33  52 SW7       30.21
HOT SPRINGS    SUNNY     49  32  52 CALM      30.19F
RUSSELLVILLE   CLOUDY    49  27  42 S9        30.15F
CLINTON        FAIR      43  32  65 CALM      30.18F
$$

ARZ036-161800-
EAST ARKANSAS

CITY           SKY/WX    TMP DP  RH WIND       PRES   REMARKS
WEST MEMPHIS   SUNNY     48  34  58 S8        30.23F
$$

ARZ050-053-066-070-073-161800-
SOUTHWEST ARKANSAS

CITY           SKY/WX    TMP DP  RH WIND       PRES   REMARKS
ARKADELPHIA    FAIR      44  33  65 CALM      30.23F
CAMDEN         CLOUDY    52  32  46 VRB3      30.23S
TEXARKANA      MOSUNNY   53  32  44 S9        30.20F
EL DORADO      SUNNY     51  36  56 MISG      30.23F
DE QUEEN       SUNNY     47  32  56 CALM      30.18F
$$

ARZ056-057-069-161800-
SOUTHEAST ARKANSAS

CITY           SKY/WX    TMP DP  RH WIND       PRES   REMARKS
PINE BLUFF     SUNNY     50  32  50 S8        30.23F
STUTTGART      SUNNY     50  32  50 S10       30.23F
MONTICELLO     CLOUDY    51  33  50 S7        30.24F

$$





USA.gov is the U.S. government's official web portal to all federal, state and local government web resources and services.